TimeCET,TemperatureF,Dew PointF,Humidity,Sea Level PressureIn,VisibilityMPH,Wind Direction,Wind SpeedMPH,Gust SpeedMPH,PrecipitationIn,Events,Conditions,WindDirDegrees,DateUTC
12:00 AM,26.6,19.4,74,29.95,6.2,NNW,9.2,-,N/A,,Mostly Cloudy,330,2013-01-25 23:00:00
12:30 AM,26.6,19.4,74,29.95,6.2,NNW,9.2,-,N/A,,Mostly Cloudy,330,2013-01-25 23:30:00
1:00 AM,26.6,19.4,74,29.95,6.2,NNW,10.4,-,N/A,,Mostly Cloudy,330,2013-01-26 00:00:00
1:30 AM,26.6,19.4,74,29.95,6.2,NW,9.2,-,N/A,,Mostly Cloudy,320,2013-01-26 00:30:00
2:00 AM,26.6,19.4,74,29.92,6.2,NW,9.2,-,N/A,,Overcast,320,2013-01-26 01:00:00
2:30 AM,26.6,19.4,74,29.92,6.2,NW,8.1,-,N/A,,Overcast,320,2013-01-26 01:30:00
3:00 AM,26.6,19.4,74,29.92,6.2,NW,6.9,-,N/A,,Overcast,320,2013-01-26 02:00:00
3:30 AM,26.6,19.4,74,29.92,6.2,NW,5.8,-,N/A,,Overcast,320,2013-01-26 02:30:00
4:00 AM,26.6,19.4,74,29.92,6.2,NNW,4.6,-,N/A,,Overcast,330,2013-01-26 03:00:00
4:30 AM,26.6,19.4,74,29.92,6.2,NW,5.8,-,N/A,,Overcast,310,2013-01-26 03:30:00
5:00 AM,26.6,19.4,74,29.92,6.2,NW,8.1,-,N/A,,Overcast,320,2013-01-26 04:00:00
5:30 AM,26.6,19.4,74,29.92,6.2,NW,10.4,-,N/A,,Overcast,320,2013-01-26 04:30:00
6:00 AM,26.6,19.4,74,29.92,6.2,NNW,10.4,-,N/A,,Overcast,330,2013-01-26 05:00:00
6:30 AM,26.6,19.4,74,29.92,6.2,NNW,9.2,-,N/A,,Overcast,340,2013-01-26 05:30:00
7:00 AM,26.6,19.4,74,29.95,6.2,NNW,9.2,-,N/A,,Mostly Cloudy,330,2013-01-26 06:00:00
7:30 AM,26.6,19.4,74,29.95,6.2,NNW,9.2,-,N/A,,Mostly Cloudy,330,2013-01-26 06:30:00
8:00 AM,26.6,19.4,74,29.95,6.2,NNW,9.2,-,N/A,,Mostly Cloudy,330,2013-01-26 07:00:00
8:30 AM,26.6,19.4,74,29.95,6.2,NNW,8.1,-,N/A,,Mostly Cloudy,330,2013-01-26 07:30:00
9:00 AM,28.4,19.4,69,29.95,6.2,NW,8.1,-,N/A,,Mostly Cloudy,320,2013-01-26 08:00:00
9:30 AM,28.4,21.2,74,29.98,6.2,NW,8.1,-,N/A,,Mostly Cloudy,320,2013-01-26 08:30:00
10:00 AM,28.4,21.2,74,29.98,6.2,NNW,9.2,-,N/A,,Mostly Cloudy,330,2013-01-26 09:00:00
10:30 AM,28.4,21.2,74,29.98,6.2,NW,8.1,-,N/A,,Mostly Cloudy,320,2013-01-26 09:30:00
11:00 AM,30.2,21.2,69,29.98,6.2,NNW,6.9,-,N/A,,Mostly Cloudy,330,2013-01-26 10:00:00
11:30 AM,30.2,19.4,64,29.95,6.2,North,6.9,-,N/A,,Mostly Cloudy,360,2013-01-26 10:30:00
12:00 PM,32.0,19.4,60,29.95,6.2,NNE,6.9,-,N/A,,Mostly Cloudy,20,2013-01-26 11:00:00
12:30 PM,32.0,19.4,60,29.95,6.2,NE,9.2,-,N/A,,Mostly Cloudy,50,2013-01-26 11:30:00
1:00 PM,32.0,17.6,55,29.95,6.2,NE,9.2,-,N/A,,Mostly Cloudy,40,2013-01-26 12:00:00
1:30 PM,32.0,17.6,55,29.95,6.2,East,10.4,-,N/A,,Mostly Cloudy,80,2013-01-26 12:30:00
2:00 PM,32.0,19.4,60,29.95,6.2,ENE,8.1,-,N/A,,Mostly Cloudy,70,2013-01-26 13:00:00
2:30 PM,32.0,19.4,60,29.95,6.2,ENE,8.1,-,N/A,,Mostly Cloudy,60,2013-01-26 13:30:00
3:00 PM,32.0,19.4,60,29.98,6.2,NE,5.8,-,N/A,,Mostly Cloudy,50,2013-01-26 14:00:00
3:30 PM,32.0,19.4,60,29.98,6.2,ENE,6.9,-,N/A,,Mostly Cloudy,70,2013-01-26 14:30:00
4:00 PM,32.0,19.4,60,29.98,6.2,ENE,5.8,-,N/A,,Mostly Cloudy,70,2013-01-26 15:00:00
4:30 PM,30.2,19.4,64,29.98,6.2,East,5.8,-,N/A,,Mostly Cloudy,90,2013-01-26 15:30:00
5:00 PM,30.2,19.4,64,29.98,6.2,East,4.6,-,N/A,,Scattered Clouds,80,2013-01-26 16:00:00
5:30 PM,28.4,21.2,74,29.98,6.2,Variable,2.3,-,N/A,,Partly Cloudy,0,2013-01-26 16:30:00
6:00 PM,28.4,23.0,80,29.98,-9999.0,Variable,3.5,-,N/A,,Clear,0,2013-01-26 17:00:00
6:30 PM,24.8,19.4,80,30.01,-9999.0,Variable,2.3,-,N/A,,Clear,0,2013-01-26 17:30:00
7:00 PM,24.8,21.2,86,30.01,5.0,NNW,4.6,-,N/A,,Unknown,330,2013-01-26 18:00:00
7:30 PM,26.6,23.0,86,30.01,5.0,Variable,2.3,-,N/A,,Unknown,0,2013-01-26 18:30:00
8:00 PM,26.6,24.8,93,30.01,5.0,Calm,Calm,-,N/A,,Mostly Cloudy,0,2013-01-26 19:00:00
8:30 PM,26.6,24.8,93,30.01,5.0,Variable,3.5,-,N/A,,Unknown,0,2013-01-26 19:30:00
9:00 PM,26.6,23.0,86,30.01,5.0,NW,4.6,-,N/A,,Unknown,310,2013-01-26 20:00:00
9:30 PM,26.6,24.8,93,30.04,5.0,WNW,4.6,-,N/A,,Unknown,300,2013-01-26 20:30:00
10:00 PM,26.6,24.8,93,30.04,4.3,WNW,6.9,-,N/A,,Unknown,300,2013-01-26 21:00:00
10:30 PM,26.6,24.8,93,30.04,4.3,WNW,4.6,-,N/A,,Unknown,300,2013-01-26 21:30:00
11:00 PM,26.6,24.8,93,30.04,4.3,Variable,3.5,-,N/A,,Unknown,0,2013-01-26 22:00:00
11:30 PM,24.8,24.8,100,30.04,4.3,Variable,2.3,-,N/A,,Unknown,0,2013-01-26 22:30:00